SCOUT X-1 DEB, 3927

Orbit data source: Space-Track

SCOUT X-1 DEB, 3927 is space debris in LEO originally from a launch on Thu, 16 Feb 1961 UTC launched from the Wallops Island (WLPIS). Debris objects in space refer to the collection of defunct objects orbiting the Earth. Examples of debris include non-operational satellites, rocket bodies, and fragments generated from explosions, collisions, or faulty payload assembly.

Loading next visibility...
Identifier
3927, 1961-004F
Orbit
LEO
Last TLE update
4 hours ago
Origin
Manufacturer
Unknown
Mission
Spacecraft
Bus & Motor
Unknown
Mass
Unknown
Launch date (UTC)
1961-02-16 (64 years ago)
Launch vehicle
Unknown
Launch site
Wallops Island (WLPIS)
Object type
Payload
Rocket body
Debris
Shape & HBR
Unknown
Radar Cross Section
Small (<0.1 m²)

Expand to show TLE details & history

TLE from 4 hours ago
0 SCOUT X-1 DEB
1  3927U 61004F   25200.18772068  .00018214  00000-0  15023-2 0  9999
2  3927  38.9745 137.8937 0185106 203.1443 156.0907 14.86062002 81191
Epoch: 2025-07-19T04:30Z
TLE epoch observation values (Epoch: 2025-07-19T04:30:19.066Z)
Latitude
0.00002°
Longitude
133.08586°
Altitude
728.217 km
Speed
7.429 km/s
True Right ascension
09h 11m 34s
True Declination
0° 00' 00"
Sunlit
Object was in daylight at epoch
Visualization orbit readout
Latitude
37.57646°
Longitude
-118.85269°
Altitude
630.486 km
Speed
7.539 km/s
Apparent Right ascension
13h 03m 42s
Apparent Declination
1° 44' 25"
Sunlit
Object is in daylight
Visualization observer readout
Local Sidereal Time
21:01:52
Azimuth
291.329° WNW
Elevation
-21.01°
Doppler factor
1
Orbital elements
Apogee altitude
742.23 km
Perigee altitude
483.416 km
Semi-major axis
6,990.96 km
Eccentricity
0.01851
Inclination
38.9745°
RAAN
137.8937°
Arg. of periapsis
203.1443°
True anomaly
156.93253°
Mean anomaly
156.0907°
Eccentric anomaly
156.51338°
Mean motion
3.71311 °/min
Orbital period
96.95 mins
BSTAR
0.0015023
Loading maneuver chart data...
Loading SW <> Apogee altitude chart data...
Loading historical data...
Loading historical data...
Loading historical data...
Loading historical data...
Loading historical data...
Loading historical data...
Loading historical data...
|